TAM3111 SBCT-SBBR

Flight info

Callsign TAM3111
Flight time 1h 36m
Altitude 35000
Route GIKLU UZ5 VUDOT
Aircraft A320/M-SDE2FGHIM1RWXYZ/LB1

Departure

Time 2026-04-27 21:13
Airport Curitiba-Afonso Pena International Airport (SBCT)

Arrival

Time 2026-04-27 22:50
Airport Presidente Juscelino Kubitschek International Airport (SBBR)
Time Latitude Longitude Altitude Speed Heading
2026-04-27 20:31 -25.53753 -49.17007 3000 ft 0 kts 225°
2026-04-27 21:02 -25.53750 -49.17003 3000 ft 2 kts 225°
2026-04-27 21:02 -25.53740 -49.16991 3000 ft 2 kts 225°
2026-04-27 21:03 -25.53729 -49.16980 3000 ft 2 kts 224°
2026-04-27 21:03 -25.53721 -49.16966 3000 ft 2 kts 257°
2026-04-27 21:03 -25.53720 -49.16949 3000 ft 2 kts 283°
2026-04-27 21:03 -25.53726 -49.16935 3000 ft 1 kts 309°
2026-04-27 21:04 -25.53730 -49.16930 3000 ft 1 kts 317°
2026-04-27 21:04 -25.53732 -49.16929 3000 ft 0 kts 315°
2026-04-27 21:06 -25.53731 -49.16930 3000 ft 0 kts 313°
2026-04-27 21:06 -25.53724 -49.16938 3000 ft 2 kts 314°
2026-04-27 21:06 -25.53707 -49.16957 3000 ft 4 kts 314°
2026-04-27 21:06 -25.53678 -49.16985 3000 ft 6 kts 328°
2026-04-27 21:07 -25.53633 -49.16975 3000 ft 8 kts 39°
2026-04-27 21:07 -25.53582 -49.16978 3000 ft 8 kts 320°
2026-04-27 21:07 -25.53540 -49.17025 3000 ft 8 kts 314°
2026-04-27 21:07 -25.53496 -49.17074 3000 ft 9 kts 314°
2026-04-27 21:08 -25.53449 -49.17126 3000 ft 9 kts 314°
2026-04-27 21:08 -25.53400 -49.17182 3000 ft 10 kts 314°
2026-04-27 21:08 -25.53348 -49.17239 3000 ft 10 kts 314°
2026-04-27 21:08 -25.53294 -49.17300 3000 ft 11 kts 315°
2026-04-27 21:09 -25.53236 -49.17364 3000 ft 12 kts 314°
2026-04-27 21:09 -25.53177 -49.17431 3000 ft 12 kts 313°
2026-04-27 21:09 -25.53113 -49.17501 3000 ft 13 kts 315°
2026-04-27 21:09 -25.53048 -49.17574 3000 ft 12 kts 314°
2026-04-27 21:10 -25.52992 -49.17651 3000 ft 12 kts 287°
2026-04-27 21:10 -25.52987 -49.17741 3000 ft 10 kts 271°
2026-04-27 21:10 -25.52984 -49.17827 3000 ft 11 kts 274°
2026-04-27 21:10 -25.52945 -49.17902 3000 ft 11 kts 316°
2026-04-27 21:11 -25.52884 -49.17965 3000 ft 12 kts 316°
2026-04-27 21:11 -25.52804 -49.17986 3000 ft 12 kts 359°
2026-04-27 21:11 -25.52716 -49.17989 3000 ft 12 kts 358°
2026-04-27 21:11 -25.52652 -49.17992 3000 ft 5 kts 358°
2026-04-27 21:12 -25.52607 -49.17994 3000 ft 7 kts 358°
2026-04-27 21:12 -25.52548 -49.17995 3000 ft 9 kts 359°
2026-04-27 21:12 -25.52488 -49.17981 3000 ft 7 kts 78°
2026-04-27 21:12 -25.52516 -49.17945 3000 ft 0 kts 135°
2026-04-27 21:13 -25.52564 -49.17891 3000 ft 40 kts 135°
2026-04-27 21:13 -25.52957 -49.17452 3000 ft 118 kts 135°
2026-04-27 21:13 -25.53679 -49.16641 3114 ft 166 kts 136°
2026-04-27 21:13 -25.54488 -49.15723 3739 ft 166 kts 135°
2026-04-27 21:14 -25.55245 -49.14830 4319 ft 160 kts 128°
2026-04-27 21:14 -25.55516 -49.13613 4578 ft 175 kts 72°
2026-04-27 21:14 -25.54965 -49.12387 4900 ft 188 kts 57°
2026-04-27 21:14 -25.54249 -49.11097 5245 ft 204 kts 57°
2026-04-27 21:15 -25.53477 -49.09700 5585 ft 220 kts 57°
2026-04-27 21:15 -25.52615 -49.08219 5834 ft 242 kts 47°
2026-04-27 21:15 -25.51183 -49.07174 6181 ft 256 kts 11°
2026-04-27 21:15 -25.49372 -49.07119 6585 ft 269 kts 348°
2026-04-27 21:16 -25.47498 -49.07477 7162 ft 279 kts 348°
2026-04-27 21:16 -25.45563 -49.07827 7914 ft 281 kts 347°
2026-04-27 21:16 -25.43638 -49.08171 8662 ft 283 kts 347°
2026-04-27 21:16 -25.41691 -49.08519 9409 ft 285 kts 346°
2026-04-27 21:17 -25.39738 -49.08869 10144 ft 287 kts 346°
2026-04-27 21:17 -25.37736 -49.09233 10716 ft 296 kts 345°
2026-04-27 21:17 -25.35659 -49.09614 11135 ft 308 kts 345°
2026-04-27 21:17 -25.33550 -49.09996 11762 ft 312 kts 345°
2026-04-27 21:18 -25.31392 -49.10387 12462 ft 313 kts 345°
2026-04-27 21:18 -25.29247 -49.10774 13117 ft 314 kts 345°
2026-04-27 21:18 -25.27095 -49.11162 13750 ft 315 kts 345°
2026-04-27 21:18 -25.24945 -49.11549 14389 ft 316 kts 345°
2026-04-27 21:19 -25.22768 -49.11940 14988 ft 317 kts 345°
2026-04-27 21:19 -25.20590 -49.12335 15543 ft 319 kts 345°
2026-04-27 21:19 -25.18377 -49.12732 16092 ft 320 kts 345°
2026-04-27 21:20 -25.13961 -49.13528 17122 ft 323 kts 345°
2026-04-27 21:20 -25.11741 -49.13929 17595 ft 325 kts 345°
2026-04-27 21:20 -25.09514 -49.14330 17988 ft 330 kts 345°
2026-04-27 21:20 -25.07221 -49.14743 18370 ft 334 kts 345°
2026-04-27 21:21 -25.04906 -49.15159 18791 ft 337 kts 345°
2026-04-27 21:21 -25.02608 -49.15571 19224 ft 338 kts 345°
2026-04-27 21:21 -25.00262 -49.15992 19646 ft 341 kts 345°
2026-04-27 21:21 -24.97905 -49.16415 20039 ft 343 kts 344°
2026-04-27 21:22 -24.95563 -49.16835 20446 ft 345 kts 344°
2026-04-27 21:22 -24.93181 -49.17264 20868 ft 346 kts 344°
2026-04-27 21:22 -24.90794 -49.17693 21239 ft 349 kts 344°
2026-04-27 21:22 -24.88409 -49.18121 21634 ft 350 kts 344°
2026-04-27 21:23 -24.85984 -49.18556 22009 ft 352 kts 344°
2026-04-27 21:23 -24.83565 -49.18991 22384 ft 354 kts 344°
2026-04-27 21:23 -24.81105 -49.19431 22771 ft 356 kts 343°
2026-04-27 21:23 -24.78652 -49.19871 23138 ft 359 kts 344°
2026-04-27 21:24 -24.76192 -49.20315 23502 ft 361 kts 344°
2026-04-27 21:24 -24.73693 -49.20764 23870 ft 363 kts 344°
2026-04-27 21:24 -24.71194 -49.21210 24244 ft 365 kts 344°
2026-04-27 21:24 -24.68675 -49.21662 24587 ft 367 kts 343°
2026-04-27 21:25 -24.66156 -49.22113 24944 ft 369 kts 344°
2026-04-27 21:25 -24.63614 -49.22568 25270 ft 372 kts 344°
2026-04-27 21:25 -24.61051 -49.23025 25610 ft 374 kts 344°
2026-04-27 21:25 -24.58479 -49.23486 25959 ft 375 kts 344°
2026-04-27 21:26 -24.55891 -49.23948 26290 ft 378 kts 344°
2026-04-27 21:26 -24.53269 -49.24415 26589 ft 380 kts 344°
2026-04-27 21:26 -24.50678 -49.24878 26902 ft 382 kts 344°
2026-04-27 21:26 -24.48023 -49.25353 27230 ft 384 kts 344°
2026-04-27 21:27 -24.45375 -49.25824 27547 ft 386 kts 344°
2026-04-27 21:27 -24.42733 -49.26295 27842 ft 388 kts 344°
2026-04-27 21:27 -24.40064 -49.26771 28136 ft 390 kts 344°
2026-04-27 21:27 -24.37361 -49.27251 28446 ft 392 kts 344°
2026-04-27 21:28 -24.34653 -49.27735 28727 ft 394 kts 344°
2026-04-27 21:28 -24.31923 -49.28220 29015 ft 396 kts 344°
2026-04-27 21:28 -24.29198 -49.28706 29296 ft 398 kts 344°
2026-04-27 21:28 -24.26456 -49.29193 29555 ft 400 kts 344°
2026-04-27 21:29 -24.23686 -49.29685 29846 ft 402 kts 344°
2026-04-27 21:29 -24.20929 -49.30175 30132 ft 403 kts 344°
2026-04-27 21:29 -24.18177 -49.30663 30385 ft 405 kts 344°
2026-04-27 21:29 -24.15358 -49.31163 30612 ft 407 kts 345°
2026-04-27 21:30 -24.12571 -49.31659 30827 ft 409 kts 345°
2026-04-27 21:30 -24.09769 -49.32157 31071 ft 411 kts 345°
2026-04-27 21:30 -24.06928 -49.32659 31321 ft 412 kts 345°
2026-04-27 21:30 -24.04089 -49.33163 31558 ft 413 kts 345°
2026-04-27 21:31 -24.01255 -49.33664 31760 ft 415 kts 345°
2026-04-27 21:31 -23.98386 -49.34172 31947 ft 417 kts 345°
2026-04-27 21:31 -23.95507 -49.34683 32130 ft 419 kts 345°
2026-04-27 21:31 -23.92634 -49.35189 32325 ft 420 kts 345°
2026-04-27 21:32 -23.89739 -49.35702 32521 ft 422 kts 345°
2026-04-27 21:32 -23.86803 -49.36221 32740 ft 423 kts 345°
2026-04-27 21:32 -23.83932 -49.36727 32920 ft 424 kts 345°
2026-04-27 21:32 -23.80988 -49.37247 33166 ft 424 kts 345°
2026-04-27 21:33 -23.78086 -49.37759 33428 ft 423 kts 345°
2026-04-27 21:33 -23.75183 -49.38269 33644 ft 424 kts 345°
2026-04-27 21:33 -23.72239 -49.38789 33820 ft 425 kts 345°
2026-04-27 21:33 -23.69300 -49.39084 34004 ft 432 kts 354°
2026-04-27 21:34 -23.66250 -49.38871 34216 ft 438 kts
2026-04-27 21:34 -23.63256 -49.38392 34501 ft 437 kts
2026-04-27 21:34 -23.60266 -49.37881 34761 ft 436 kts
2026-04-27 21:34 -23.57242 -49.37364 34979 ft 436 kts
2026-04-27 21:35 -23.54267 -49.36858 35172 ft 435 kts
2026-04-27 21:35 -23.51264 -49.36353 35377 ft 435 kts
2026-04-27 21:35 -23.48272 -49.35852 35568 ft 434 kts
2026-04-27 21:35 -23.45290 -49.35356 35721 ft 435 kts
2026-04-27 21:36 -23.42302 -49.34860 35842 ft 436 kts
2026-04-27 21:36 -23.39288 -49.34360 35974 ft 436 kts
2026-04-27 21:36 -23.36301 -49.33866 36099 ft 437 kts
2026-04-27 21:36 -23.33262 -49.33363 36216 ft 437 kts
2026-04-27 21:37 -23.27259 -49.32371 36397 ft 439 kts
2026-04-27 21:37 -23.21195 -49.31370 36591 ft 440 kts
2026-04-27 21:38 -23.15150 -49.30374 36735 ft 441 kts
2026-04-27 21:38 -23.09057 -49.29369 36890 ft 442 kts
2026-04-27 21:39 -23.02959 -49.28365 37035 ft 443 kts
2026-04-27 21:39 -22.96827 -49.27357 37039 ft 444 kts
2026-04-27 21:40 -22.90737 -49.26356 37035 ft 444 kts
2026-04-27 21:40 -22.84594 -49.25348 37027 ft 444 kts
2026-04-27 21:41 -22.78513 -49.24350 37021 ft 443 kts
2026-04-27 21:41 -22.72412 -49.23351 37011 ft 443 kts
2026-04-27 21:42 -22.66279 -49.22347 37009 ft 443 kts
2026-04-27 21:42 -22.60196 -49.21350 37007 ft 444 kts
2026-04-27 21:43 -22.54097 -49.20354 37012 ft 443 kts
2026-04-27 21:43 -22.47993 -49.19358 37010 ft 442 kts
2026-04-27 21:44 -22.41882 -49.18361 37005 ft 443 kts
2026-04-27 21:44 -22.35806 -49.17370 37005 ft 443 kts
2026-04-27 21:45 -22.29704 -49.16376 37003 ft 442 kts
2026-04-27 21:45 -22.23599 -49.15384 36998 ft 442 kts
2026-04-27 21:46 -22.17538 -49.14398 36992 ft 442 kts
2026-04-27 21:46 -22.11447 -49.13410 36985 ft 442 kts
2026-04-27 21:47 -22.05338 -49.12418 36975 ft 442 kts
2026-04-27 21:47 -21.99247 -49.11429 36971 ft 442 kts
2026-04-27 21:48 -21.93187 -49.10449 36964 ft 442 kts
2026-04-27 21:48 -21.87070 -49.09458 36966 ft 442 kts
2026-04-27 21:49 -21.81006 -49.08477 36970 ft 442 kts
2026-04-27 21:49 -21.74925 -49.07495 36967 ft 442 kts
2026-04-27 21:50 -21.68830 -49.06510 36971 ft 442 kts
2026-04-27 21:50 -21.62717 -49.05524 36975 ft 442 kts
2026-04-27 21:51 -21.56630 -49.04544 36975 ft 443 kts
2026-04-27 21:51 -21.50551 -49.03564 36986 ft 443 kts
2026-04-27 21:52 -21.44446 -49.02582 36986 ft 443 kts
2026-04-27 21:52 -21.38321 -49.01597 36985 ft 443 kts
2026-04-27 21:53 -21.32217 -49.00617 36991 ft 443 kts
2026-04-27 21:53 -21.26104 -48.99637 36995 ft 444 kts
2026-04-27 21:54 -21.20012 -48.98660 36999 ft 444 kts
2026-04-27 21:54 -21.13886 -48.97678 37004 ft 444 kts
2026-04-27 21:55 -21.07802 -48.96704 37009 ft 444 kts
2026-04-27 21:55 -21.01662 -48.95716 37015 ft 444 kts
2026-04-27 21:56 -20.92472 -48.94244 37013 ft 444 kts
2026-04-27 21:57 -20.86371 -48.93270 37010 ft 444 kts
2026-04-27 21:57 -20.80230 -48.92291 37009 ft 444 kts
2026-04-27 21:58 -20.74119 -48.91316 37005 ft 444 kts
2026-04-27 21:58 -20.68024 -48.90346 37002 ft 444 kts
2026-04-27 21:59 -20.61892 -48.89372 37002 ft 444 kts
2026-04-27 21:59 -20.55753 -48.88394 37000 ft 444 kts
2026-04-27 22:00 -20.49622 -48.87421 37002 ft 444 kts
2026-04-27 22:00 -20.43509 -48.86451 36998 ft 444 kts
2026-04-27 22:01 -20.37386 -48.85479 36997 ft 444 kts
2026-04-27 22:01 -20.31267 -48.84511 36995 ft 445 kts
2026-04-27 22:02 -20.25127 -48.83538 36992 ft 445 kts
2026-04-27 22:02 -20.19018 -48.82571 36992 ft 445 kts
2026-04-27 22:03 -20.12886 -48.81603 36993 ft 444 kts
2026-04-27 22:03 -20.06766 -48.80636 36997 ft 445 kts
2026-04-27 22:04 -20.00644 -48.79669 37000 ft 445 kts
2026-04-27 22:04 -19.94493 -48.78699 37000 ft 445 kts
2026-04-27 22:05 -19.88397 -48.77739 37008 ft 445 kts
2026-04-27 22:05 -19.82266 -48.76774 37009 ft 445 kts
2026-04-27 22:06 -19.76093 -48.75803 37023 ft 445 kts
2026-04-27 22:06 -19.69990 -48.74844 37029 ft 447 kts
2026-04-27 22:07 -19.63837 -48.73647 37036 ft 452 kts
2026-04-27 22:07 -19.57634 -48.72166 37037 ft 456 kts
2026-04-27 22:08 -19.51411 -48.70695 37044 ft 459 kts
2026-04-27 22:08 -19.45346 -48.69281 37052 ft 462 kts
2026-04-27 22:09 -19.39042 -48.67820 37057 ft 463 kts
2026-04-27 22:09 -19.32721 -48.66360 37058 ft 463 kts
2026-04-27 22:10 -19.26431 -48.64910 37063 ft 463 kts
2026-04-27 22:10 -19.20102 -48.63451 37066 ft 463 kts
2026-04-27 22:11 -19.13820 -48.62005 37076 ft 463 kts
2026-04-27 22:11 -19.07515 -48.60555 37075 ft 463 kts 10°
2026-04-27 22:12 -19.01188 -48.59101 37084 ft 463 kts 10°
2026-04-27 22:12 -18.94899 -48.57657 37085 ft 463 kts 10°
2026-04-27 22:13 -18.88604 -48.56212 37083 ft 463 kts 10°
2026-04-27 22:13 -18.82297 -48.54767 37079 ft 463 kts 10°
2026-04-27 22:14 -18.75966 -48.53316 37072 ft 463 kts 10°
2026-04-27 22:14 -18.69641 -48.51868 37071 ft 463 kts 10°
2026-04-27 22:15 -18.63356 -48.50430 37080 ft 463 kts 10°
2026-04-27 22:15 -18.57061 -48.48991 37086 ft 463 kts 10°
2026-04-27 22:16 -18.50864 -48.47577 37092 ft 463 kts 10°
2026-04-27 22:16 -18.44548 -48.46135 37095 ft 463 kts 10°
2026-04-27 22:17 -18.38472 -48.44750 37087 ft 463 kts 10°
2026-04-27 22:17 -18.32169 -48.43312 37074 ft 463 kts 10°
2026-04-27 22:18 -18.25876 -48.41880 37066 ft 463 kts 10°
2026-04-27 22:18 -18.19572 -48.40446 37059 ft 463 kts 10°
2026-04-27 22:19 -18.13243 -48.39007 37058 ft 462 kts 10°
2026-04-27 22:19 -18.06963 -48.37580 37057 ft 463 kts 10°
2026-04-27 22:20 -18.00657 -48.36148 37058 ft 462 kts 10°
2026-04-27 22:20 -17.94352 -48.34718 37060 ft 463 kts 10°
2026-04-27 22:21 -17.88065 -48.33281 37067 ft 462 kts 10°
2026-04-27 22:21 -17.81771 -48.31855 37073 ft 462 kts 10°
2026-04-27 22:22 -17.75458 -48.30428 37081 ft 462 kts 10°
2026-04-27 22:22 -17.69179 -48.29008 37085 ft 462 kts 10°
2026-04-27 22:23 -17.62873 -48.27583 37085 ft 462 kts 10°
2026-04-27 22:23 -17.56573 -48.26161 37084 ft 462 kts 10°
2026-04-27 22:24 -17.50312 -48.24748 37082 ft 456 kts 10°
2026-04-27 22:24 -17.44125 -48.23352 37081 ft 456 kts 10°
2026-04-27 22:25 -17.37919 -48.21954 37081 ft 455 kts 10°
2026-04-27 22:25 -17.31702 -48.20554 37082 ft 455 kts 10°
2026-04-27 22:25 -17.28622 -48.19862 36898 ft 455 kts 11°
2026-04-27 22:26 -17.25536 -48.19168 36604 ft 454 kts 11°
2026-04-27 22:26 -17.22438 -48.18471 36309 ft 454 kts 11°
2026-04-27 22:26 -17.19315 -48.17769 36012 ft 455 kts 11°
2026-04-27 22:26 -17.16239 -48.17078 35722 ft 455 kts 11°
2026-04-27 22:27 -17.13111 -48.16375 35428 ft 455 kts 11°
2026-04-27 22:27 -17.10051 -48.15688 35139 ft 456 kts 11°
2026-04-27 22:27 -17.06922 -48.14986 34843 ft 456 kts 11°
2026-04-27 22:27 -17.03815 -48.14288 34554 ft 457 kts 11°
2026-04-27 22:28 -17.00708 -48.13593 34085 ft 459 kts 11°
2026-04-27 22:28 -16.97556 -48.12885 33403 ft 460 kts 11°
2026-04-27 22:28 -16.94424 -48.12183 32649 ft 462 kts 11°
2026-04-27 22:28 -16.91288 -48.11480 31874 ft 463 kts 11°
2026-04-27 22:29 -16.88133 -48.10771 31043 ft 463 kts 11°
2026-04-27 22:29 -16.84985 -48.10066 30176 ft 463 kts 11°
2026-04-27 22:29 -16.81831 -48.09365 29284 ft 462 kts
2026-04-27 22:29 -16.78689 -48.08962 28370 ft 461 kts
2026-04-27 22:30 -16.75476 -48.09040 27578 ft 455 kts 354°
2026-04-27 22:30 -16.72398 -48.09556 27417 ft 442 kts 348°
2026-04-27 22:30 -16.69381 -48.10215 27202 ft 439 kts 348°
2026-04-27 22:30 -16.66393 -48.10891 26948 ft 437 kts 347°
2026-04-27 22:31 -16.63418 -48.11569 26696 ft 436 kts 348°
2026-04-27 22:31 -16.60458 -48.12242 26451 ft 435 kts 348°
2026-04-27 22:31 -16.57505 -48.12913 26201 ft 434 kts 348°
2026-04-27 22:31 -16.54565 -48.13579 25954 ft 433 kts 348°
2026-04-27 22:32 -16.51623 -48.14245 25708 ft 432 kts 348°
2026-04-27 22:32 -16.48672 -48.14912 25456 ft 431 kts 348°
2026-04-27 22:32 -16.45748 -48.15573 25210 ft 429 kts 348°
2026-04-27 22:32 -16.42830 -48.16231 24962 ft 429 kts 348°
2026-04-27 22:33 -16.39915 -48.16889 24715 ft 427 kts 348°
2026-04-27 22:33 -16.37008 -48.17545 24466 ft 426 kts 348°
2026-04-27 22:33 -16.34118 -48.18196 24220 ft 425 kts 348°
2026-04-27 22:33 -16.31224 -48.18850 23915 ft 424 kts 349°
2026-04-27 22:34 -16.28317 -48.19507 23534 ft 422 kts 349°
2026-04-27 22:34 -16.25447 -48.20155 23060 ft 420 kts 349°
2026-04-27 22:34 -16.22618 -48.20793 22537 ft 416 kts 349°
2026-04-27 22:34 -16.19803 -48.21426 21991 ft 412 kts 349°
2026-04-27 22:35 -16.16990 -48.21918 21427 ft 408 kts 356°
2026-04-27 22:35 -16.14146 -48.21921 20859 ft 403 kts
2026-04-27 22:35 -16.11387 -48.21455 20287 ft 400 kts 13°
2026-04-27 22:35 -16.08709 -48.20783 19721 ft 397 kts 15°
2026-04-27 22:36 -16.06047 -48.20085 19156 ft 396 kts 15°
2026-04-27 22:36 -16.03393 -48.19316 18567 ft 394 kts 22°
2026-04-27 22:36 -16.01080 -48.17803 17963 ft 392 kts 44°
2026-04-27 22:36 -15.99467 -48.15555 17381 ft 390 kts 64°
2026-04-27 22:37 -15.98694 -48.12889 16818 ft 390 kts 83°
2026-04-27 22:37 -15.98513 -48.10084 16255 ft 389 kts 86°
2026-04-27 22:37 -15.98363 -48.07309 15697 ft 388 kts 86°
2026-04-27 22:37 -15.98200 -48.04496 15121 ft 387 kts 86°
2026-04-27 22:38 -15.98033 -48.01747 14824 ft 378 kts 86°
2026-04-27 22:38 -15.97866 -47.99073 14560 ft 369 kts 86°
2026-04-27 22:38 -15.97698 -47.96428 14325 ft 362 kts 86°
2026-04-27 22:38 -15.97532 -47.93852 14091 ft 357 kts 86°
2026-04-27 22:39 -15.97368 -47.91315 13883 ft 353 kts 86°
2026-04-27 22:39 -15.97203 -47.88771 13652 ft 347 kts 86°
2026-04-27 22:39 -15.97045 -47.86326 13434 ft 337 kts 86°
2026-04-27 22:39 -15.96890 -47.83920 13218 ft 327 kts 86°
2026-04-27 22:40 -15.96746 -47.81638 12834 ft 316 kts 86°
2026-04-27 22:40 -15.96606 -47.79409 12390 ft 303 kts 86°
2026-04-27 22:40 -15.96472 -47.77284 12012 ft 289 kts 86°
2026-04-27 22:40 -15.96342 -47.75219 11627 ft 279 kts 86°
2026-04-27 22:41 -15.96217 -47.73241 11300 ft 273 kts 86°
2026-04-27 22:41 -15.96092 -47.71281 10951 ft 272 kts 85°
2026-04-27 22:41 -15.95967 -47.69334 10602 ft 271 kts 86°
2026-04-27 22:41 -15.95842 -47.67385 10254 ft 271 kts 86°
2026-04-27 22:42 -15.95719 -47.65436 9908 ft 270 kts 85°
2026-04-27 22:42 -15.95597 -47.63541 9780 ft 259 kts 84°
2026-04-27 22:42 -15.95162 -47.61779 9653 ft 247 kts 56°
2026-04-27 22:42 -15.93903 -47.60671 9467 ft 239 kts 19°
2026-04-27 22:43 -15.92263 -47.60530 9137 ft 238 kts 353°
2026-04-27 22:43 -15.90636 -47.60768 8809 ft 233 kts 348°
2026-04-27 22:43 -15.89226 -47.61504 8453 ft 229 kts 312°
2026-04-27 22:43 -15.88449 -47.62867 8480 ft 212 kts 296°
2026-04-27 22:44 -15.87839 -47.64246 8257 ft 208 kts 296°
2026-04-27 22:44 -15.87224 -47.65599 8019 ft 207 kts 297°
2026-04-27 22:44 -15.86676 -47.66974 7676 ft 207 kts 287°
2026-04-27 22:44 -15.86467 -47.68441 7374 ft 204 kts 273°
2026-04-27 22:45 -15.86488 -47.69886 7124 ft 197 kts 267°
2026-04-27 22:45 -15.86587 -47.71282 6883 ft 191 kts 266°
2026-04-27 22:45 -15.86692 -47.72642 6643 ft 185 kts 266°
2026-04-27 22:45 -15.86787 -47.73950 6411 ft 179 kts 266°
2026-04-27 22:46 -15.86874 -47.75241 6206 ft 182 kts 267°
2026-04-27 22:46 -15.86958 -47.76556 5991 ft 183 kts 267°
2026-04-27 22:46 -15.87040 -47.77874 5771 ft 182 kts 267°
2026-04-27 22:46 -15.87123 -47.79192 5542 ft 181 kts 267°
2026-04-27 22:47 -15.87204 -47.80481 5315 ft 181 kts 266°
2026-04-27 22:47 -15.87287 -47.81796 5082 ft 180 kts 267°
2026-04-27 22:47 -15.87365 -47.83027 4864 ft 167 kts 266°
2026-04-27 22:47 -15.87440 -47.84208 4647 ft 160 kts 268°
2026-04-27 22:48 -15.87513 -47.85359 4459 ft 160 kts 266°
2026-04-27 22:48 -15.87587 -47.86501 4276 ft 159 kts 268°
2026-04-27 22:48 -15.87653 -47.87543 4092 ft 159 kts 266°
2026-04-27 22:48 -15.87664 -47.87732 4066 ft 159 kts 265°
2026-04-27 22:49 -15.87702 -47.88268 4010 ft 155 kts 269°
2026-04-27 22:49 -15.87776 -47.89349 3779 ft 149 kts 270°
2026-04-27 22:49 -15.87839 -47.90425 3625 ft 149 kts 269°
2026-04-27 22:49 -15.87906 -47.91499 3487 ft 148 kts 270°
2026-04-27 22:50 -15.87960 -47.92386 3475 ft 82 kts 266°
2026-04-27 22:50 -15.87993 -47.92876 3482 ft 60 kts 266°
2026-04-27 22:50 -15.87997 -47.93201 3487 ft 35 kts 282°
2026-04-27 22:50 -15.87934 -47.93364 3489 ft 10 kts 308°
2026-04-27 22:51 -15.87865 -47.93370 3489 ft 10 kts 28°
2026-04-27 22:51 -15.87838 -47.93295 3488 ft 12 kts 86°
2026-04-27 22:51 -15.87831 -47.93196 3486 ft 14 kts 86°
2026-04-27 22:51 -15.87824 -47.93087 3484 ft 16 kts 86°
2026-04-27 22:52 -15.87816 -47.92964 3482 ft 17 kts 86°
2026-04-27 22:52 -15.87808 -47.92829 3480 ft 19 kts 86°
2026-04-27 22:52 -15.87799 -47.92688 3477 ft 20 kts 87°
2026-04-27 22:52 -15.87789 -47.92537 3475 ft 21 kts 86°
2026-04-27 22:53 -15.87779 -47.92383 3473 ft 21 kts 87°
2026-04-27 22:53 -15.87769 -47.92226 3472 ft 20 kts 86°
2026-04-27 22:53 -15.87761 -47.92101 3471 ft 15 kts 86°
2026-04-27 22:53 -15.87756 -47.92036 3471 ft 2 kts 86°
2026-04-27 22:54 -15.87755 -47.92014 3471 ft 3 kts 82°
2026-04-27 22:54 -15.87748 -47.91991 3471 ft 4 kts 85°
2026-04-27 22:54 -15.87747 -47.91894 3471 ft 17 kts 87°
2026-04-27 22:54 -15.87739 -47.91771 3471 ft 16 kts 85°
2026-04-27 22:55 -15.87732 -47.91673 3470 ft 9 kts 74°
2026-04-27 22:55 -15.87679 -47.91647 3470 ft 9 kts 358°
2026-04-27 22:55 -15.87617 -47.91651 3470 ft 8 kts 356°
2026-04-27 22:55 -15.87557 -47.91655 3471 ft 7 kts 356°
2026-04-27 22:56 -15.87509 -47.91658 3472 ft 6 kts 356°
2026-04-27 22:56 -15.87469 -47.91661 3473 ft 5 kts 356°
2026-04-27 22:56 -15.87437 -47.91663 3473 ft 4 kts 356°
2026-04-27 22:56 -15.87405 -47.91665 3474 ft 5 kts 356°
2026-04-27 22:57 -15.87361 -47.91668 3474 ft 7 kts 356°
2026-04-27 22:57 -15.87314 -47.91689 3474 ft 7 kts 298°
2026-04-27 22:57 -15.87314 -47.91748 3474 ft 8 kts 266°
2026-04-27 22:57 -15.87318 -47.91814 3474 ft 9 kts 266°
2026-04-27 22:58 -15.87323 -47.91885 3474 ft 10 kts 266°
2026-04-27 22:58 -15.87328 -47.91959 3474 ft 10 kts 267°
2026-04-27 22:58 -15.87330 -47.92010 3474 ft 0 kts 285°
2026-04-27 22:58 -15.87327 -47.92015 3474 ft 2 kts 308°
2026-04-27 22:59 -15.87299 -47.92024 3474 ft 4 kts 353°
2026-04-27 22:59 -15.87275 -47.92027 3474 ft 0 kts 355°